Marietta, GA

5:27 PM EST on February 26, 2017 (GMT -0500)
Dobbins Air Force Base

Weather History for KMGE - December, 2012

Change the Weather History Date:

Monday, December 10, 2012

  Actual Average Record
Temperature  
Mean Temperature 58 °F -  
Max Temperature 66 °F 52 °F 77 °F (2007)
Min Temperature 49 °F 35 °F 24 °F (2005)
Degree Days  
Heating Degree Days 7    
Growing Degree Days 8 (Base 50)    
Moisture  
Dew Point 57 °F    
Average Humidity 93    
Maximum Humidity 100    
Minimum Humidity 78    
Precipitation  
Precipitation 0.50 in - - ()
Sea Level Pressure  
Sea Level Pressure 29.81 in    
Wind  
Wind Speed 8 mph (SW)    
Max Wind Speed 24 mph    
Max Gust Speed 30 mph    
Visibility 8 miles    
Events Rain , Thunderstorm    
Averages and records for this station are not official NWS values.
T = Trace of Precipitation, MM = Missing Value Source: NWS Daily Summary

Daily Weather History Graph

Daily Weather History Graph

Search for Another Location

Airport or City:

Trip Planner

Search our weather history database for the weather conditions in past years. The results will help you decide how hot, cold, wet, or windy it might be!

Date:

Astronomy

Dec. 10, 2012 Rise Set
Actual Time 7:32 AM EST 5:29 PM EST
Civil Twilight 7:05 AM EST 5:57 PM EST
Nautical Twilight 6:34 AM EST 6:28 PM EST
Astronomical Twilight 6:03 AM EST 6:58 PM EST
Moon 4:20 AM EST (12/10) 3:13 PM EST (12/10)
Length of Visible Light 10h 51m
Length of Day
9h 56m
Waning Crescent, 10% of the Moon is Illuminated
Dec 10
Waning Crescent
Dec 13
New
Dec 20
First Quarter
Dec 28
Full
Jan 4
Last Quarter

Hourly Weather History & Observations

Time (EST) Temp. Dew Point Humidity Pressure Visibility Wind Dir Wind Speed Gust Speed Precip Events Conditions
12:55 AM 60.1 °F 56.3 °F 87% 29.94 in 10.0 mi South 4.6 mph - N/A   Clear
1:55 AM 60.6 °F 56.5 °F 86% 29.93 in 10.0 mi South 6.9 mph - N/A   Overcast
2:55 AM 61.2 °F 56.7 °F 85% 29.90 in 10.0 mi South 6.9 mph - N/A   Overcast
2:59 AM 60.8 °F 57.2 °F 88% 29.91 in 10.0 mi South 6.9 mph - N/A   Overcast
3:02 AM 60.8 °F 57.2 °F 88% 29.91 in 10.0 mi SSW 5.8 mph - N/A   Overcast
3:04 AM 60.8 °F 57.2 °F 88% 29.91 in 10.0 mi South 4.6 mph - N/A   Overcast
3:26 AM 60.8 °F 57.2 °F 88% 29.91 in 10.0 mi South 5.8 mph - N/A   Overcast
3:36 AM 60.8 °F 57.2 °F 88% 29.90 in 10.0 mi South 4.6 mph - N/A   Overcast
3:37 AM 60.8 °F 57.2 °F 88% 29.90 in 10.0 mi Variable 5.8 mph - N/A   Overcast
3:38 AM 60.8 °F 57.2 °F 88% 29.90 in 10.0 mi Variable 4.6 mph - N/A   Overcast
3:53 AM 60.8 °F 57.2 °F 88% 29.88 in 10.0 mi South 8.1 mph - N/A   Overcast
3:55 AM 61.5 °F 57.4 °F 86% 29.88 in 10.0 mi South 9.2 mph - N/A   Overcast
4:43 AM 60.8 °F 57.2 °F 88% 29.86 in 10.0 mi South 8.1 mph - N/A   Overcast
4:55 AM 61.5 °F 57.9 °F 88% 29.86 in 10.0 mi South 8.1 mph 16.1 mph N/A   Overcast
5:02 AM 60.8 °F 57.2 °F 88% 29.86 in 10.0 mi South 10.4 mph - N/A   Overcast
5:55 AM 61.7 °F 58.5 °F 89% 29.85 in 10.0 mi SSW 8.1 mph - N/A   Overcast
6:55 AM 62.1 °F 59.2 °F 90% 29.83 in 10.0 mi South 5.8 mph - N/A   Overcast
7:55 AM 63.1 °F 59.9 °F 89% 29.84 in 10.0 mi SSW 10.4 mph 17.3 mph N/A   Overcast
8:10 AM 64.4 °F 59.0 °F 83% 29.84 in 10.0 mi SSW 12.7 mph 18.4 mph N/A   Overcast
8:48 AM 64.4 °F 59.0 °F 83% 29.83 in 10.0 mi SSW 12.7 mph 19.6 mph N/A   Overcast
8:55 AM 64.2 °F 59.4 °F 84% 29.83 in 10.0 mi SSW 10.4 mph 18.4 mph N/A   Overcast
9:55 AM 64.8 °F 59.2 °F 82% 29.83 in 10.0 mi SSW 9.2 mph 17.3 mph N/A   Overcast
10:19 AM 66.2 °F 59.0 °F 78% 29.84 in 10.0 mi SW 15.0 mph 20.7 mph N/A   Overcast
10:55 AM 66.2 °F 59.5 °F 79% 29.82 in 10.0 mi SSW 9.2 mph 23.0 mph N/A   Overcast
11:55 AM 66.6 °F 59.4 °F 78% 29.77 in 10.0 mi South 15.0 mph 23.0 mph N/A   Overcast
11:57 AM 66.2 °F 59.0 °F 78% 29.77 in 10.0 mi South 10.4 mph 23.0 mph N/A   Light Drizzle
12:13 PM 66.2 °F 59.0 °F 78% 29.79 in 2.0 mi West 24.2 mph 29.9 mph N/A Rain Light Rain
12:15 PM 64.4 °F 59.0 °F 83% 29.81 in 0.8 mi West 23.0 mph - N/A Rain Rain
12:17 PM 62.6 °F 59.0 °F 88% 29.79 in 1.5 mi West 16.1 mph 25.3 mph N/A Rain Heavy Rain
12:21 PM 60.8 °F 59.0 °F 94% 29.81 in 1.0 mi SW 12.7 mph - N/A Rain Heavy Rain
12:33 PM 60.8 °F 59.0 °F 94% 29.80 in 1.2 mi SW 9.2 mph - N/A Rain Light Rain
12:35 PM 60.8 °F 59.0 °F 94% 29.79 in 1.8 mi SW 6.9 mph - N/A Rain , Thunderstorm Light Thunderstorms and Rain
12:55 PM 59.7 °F 59.2 °F 98% 29.79 in 2.5 mi SSW 9.2 mph - 0.33 in Rain , Thunderstorm Thunderstorms and Rain
1:00 PM 59.0 °F 59.0 °F 100% 29.79 in 4.0 mi SSW 6.9 mph - N/A Rain Rain
1:09 PM 59.0 °F 59.0 °F 100% 29.78 in 9.0 mi SSW 4.6 mph - N/A Rain Light Rain
1:13 PM 59.0 °F 59.0 °F 100% 29.78 in 7.0 mi SSW 4.6 mph - N/A Rain Light Rain
1:38 PM 60.8 °F 60.8 °F 100% 29.78 in 10.0 mi SW 4.6 mph - N/A Rain Light Rain
1:55 PM 59.9 °F 59.9 °F 100% 29.78 in 3.0 mi SSW 6.9 mph - 0.06 in Rain Rain
2:18 PM 59.0 °F 59.0 °F 100% 29.76 in 5.0 mi Calm Calm - N/A Rain Light Rain
2:25 PM 59.0 °F 59.0 °F 100% 29.76 in 10.0 mi South 3.5 mph - N/A Rain Light Rain
2:55 PM 59.7 °F 59.7 °F 100% 29.75 in 4.0 mi South 3.5 mph - 0.08 in Rain Light Rain
3:25 PM 60.8 °F 60.8 °F 100% 29.75 in 10.0 mi South 3.5 mph - N/A Rain Light Rain
3:28 PM 60.8 °F 60.8 °F 100% 29.75 in 4.0 mi South 4.6 mph - N/A Rain Light Rain
3:45 PM 60.8 °F 60.8 °F 100% 29.75 in 4.0 mi SSW 5.8 mph - N/A Rain Light Rain
3:55 PM 60.3 °F 60.3 °F 100% 29.75 in 4.0 mi South 6.9 mph - 0.03 in Rain Light Rain
4:23 PM 60.8 °F 60.8 °F 100% 29.73 in 6.0 mi South 6.9 mph - N/A Rain Light Rain
4:55 PM 60.4 °F 60.4 °F 100% 29.71 in 6.0 mi South 9.2 mph - 0.00 in Rain Light Rain
5:14 PM 60.8 °F 60.8 °F 100% 29.74 in 7.0 mi SW 8.1 mph - N/A   Overcast
5:35 PM 60.8 °F 60.8 °F 100% 29.73 in 7.0 mi WSW 5.8 mph - N/A   Overcast
5:55 PM 60.8 °F 60.4 °F 99% 29.74 in 7.0 mi SW 4.6 mph - N/A   Overcast
6:02 PM 60.8 °F 60.8 °F 100% 29.74 in 10.0 mi SW 4.6 mph - N/A   Overcast
6:05 PM 60.8 °F 60.8 °F 100% 29.74 in 10.0 mi SW 5.8 mph - N/A   Overcast
6:20 PM 60.8 °F 60.8 °F 100% 29.75 in 10.0 mi SW 5.8 mph - N/A   Overcast
6:55 PM 60.1 °F 60.1 °F 100% 29.75 in 10.0 mi SW 4.6 mph - N/A   Overcast
7:23 PM 59.0 °F 59.0 °F 100% 29.74 in 10.0 mi South 4.6 mph - N/A   Mostly Cloudy
7:55 PM 59.4 °F 59.4 °F 100% 29.76 in 10.0 mi SSW 3.5 mph - N/A   Mostly Cloudy
7:59 PM 59.0 °F 59.0 °F 100% 29.76 in 10.0 mi Calm Calm - N/A   Overcast
8:45 PM 59.0 °F 59.0 °F 100% 29.77 in 10.0 mi SW 4.6 mph - N/A   Overcast
8:48 PM 59.0 °F 59.0 °F 100% 29.78 in 10.0 mi WNW 11.5 mph - N/A   Overcast
8:55 PM 58.6 °F 58.6 °F 100% 29.78 in 10.0 mi WNW 17.3 mph - N/A   Overcast
8:57 PM 59.0 °F 59.0 °F 100% 29.79 in 10.0 mi WNW 16.1 mph - N/A   Overcast
9:19 PM 55.4 °F 55.4 °F 100% 29.80 in 10.0 mi WNW 12.7 mph - N/A   Overcast
9:26 PM 55.4 °F 53.6 °F 94% 29.80 in 10.0 mi WNW 16.1 mph - N/A   Overcast
9:44 PM 53.6 °F 51.8 °F 94% 29.81 in 10.0 mi WNW 15.0 mph - N/A   Overcast
9:53 PM 53.6 °F 51.8 °F 94% 29.81 in 10.0 mi WNW 17.3 mph 23.0 mph N/A   Overcast
9:55 PM 53.8 °F 51.1 °F 91% 29.81 in 10.0 mi WNW 18.4 mph 24.2 mph N/A   Overcast
10:02 PM 53.6 °F 51.8 °F 94% 29.82 in 10.0 mi WNW 17.3 mph 24.2 mph N/A   Overcast
10:09 PM 53.6 °F 50.0 °F 88% 29.82 in 10.0 mi WNW 16.1 mph - N/A   Overcast
10:36 PM 51.8 °F 50.0 °F 94% 29.84 in 10.0 mi West 13.8 mph - N/A   Overcast
10:53 PM 51.8 °F 48.2 °F 88% 29.85 in 10.0 mi West 11.5 mph - N/A   Overcast
10:55 PM 51.1 °F 48.2 °F 90% 29.85 in 10.0 mi West 10.4 mph - N/A   Overcast
11:03 PM 51.8 °F 48.2 °F 88% 29.86 in 10.0 mi West 11.5 mph - N/A   Overcast
11:13 PM 50.0 °F 48.2 °F 94% 29.86 in 10.0 mi WNW 16.1 mph 20.7 mph N/A   Overcast
11:55 PM 49.1 °F 45.5 °F 87% 29.87 in 10.0 mi WNW 13.8 mph 20.7 mph N/A   Overcast